Tabriz International Airport

Airport
ICAO code: 
OITT
IATA Code: 
TBZ
Summary
ICAO Region: 
APAC
Territory: 
Location: 
Tabriz, Azarbayjan-e Sharqi
Serving: 
Tabriz
Elevation: 
4459 ft
Coordinates: 
Aerial View: 
38° 8' 2" N, 46° 14' 6" E
Metar
Observation
OITT 271930Z 00000KT 5000 DU NSC 23/07 Q1012 A2991
Station
Tabriz
Date/Time
2022-06-27 19:30:00
Wind direction
Wind speed
00 kts
Lowest cloud amount
nil significant cloud
Temperature
23°C
Dew point
7°C
Humidity
35%
QNH
1012 hPa
Weather condition
n/a

Airport serving Tabriz, Iran.

Climatology

Semi-arid climate (Köppen climate classification BSk)

Runways

Designator Length Width Surface Rops
12R/30L 3516 30 ASP Yes/Yes
12L/30R 3604 45 ASP Yes/Yes
Airport map: 
Aerial View: 

Accidents and Serious Incidents at or in the vicinity of OITT

SKYbrary Partners:

Safety knowledge contributed by: